Leeuwarden, Netherlands

5:40 AM CEST on June 28, 2017 (GMT +0200)
Leeuwarden Air Base

Weather History for EHLW - April, 2013

Change the Weather History Date:

Friday, April 5, 2013

  Actual Average Record
Temperature  
Mean Temperature 38 °F -  
Max Temperature 45 °F 53 °F 60 °F (2014)
Min Temperature 31 °F 39 °F 30 °F (2015)
Degree Days  
Heating Degree Days 27    
Moisture  
Dew Point 28 °F    
Average Humidity 67    
Maximum Humidity 81    
Minimum Humidity 38    
Precipitation  
Precipitation 0.00 in - - ()
Sea Level Pressure  
Sea Level Pressure 29.97 in    
Wind  
Wind Speed 14 mph ()    
Max Wind Speed 21 mph    
Max Gust Speed -    
Visibility 6.5 miles    
Events      
Averages and records for this station are not official NWS values.
T = Trace of Precipitation, MM = Missing Value Source: Averaged Metar Reports

Daily Weather History Graph

Daily Weather History Graph

Search for Another Location

Airport or City:

Trip Planner

Search our weather history database for the weather conditions in past years. The results will help you decide how hot, cold, wet, or windy it might be!

Date:

Astronomy

Apr. 05, 2013 Rise Set
Actual Time 7:00 AM CEST 8:19 PM CEST
Civil Twilight 6:25 AM CEST 8:55 PM CEST
Nautical Twilight 5:41 AM CEST 9:39 PM CEST
Astronomical Twilight 4:53 AM CEST 10:27 PM CEST
Moon 4:38 AM CEST (4/5) 2:48 PM CEST (4/5)
Length of Visible Light 14h 30m
Length of Day
13h 18m
Waning Crescent, 26% of the Moon is Illuminated
Apr 5
Waning Crescent
Apr 10
New
Apr 18
First Quarter
Apr 25
Full
May 2
Last Quarter

Hourly Weather History & Observations

Time (CEST) Temp. Windchill Dew Point Humidity Pressure Visibility Wind Dir Wind Speed Gust Speed Precip Events Conditions
12:25 AM 37.4 °F 28.2 °F 24.8 °F 60% 29.95 in 6.2 mi ENE 16.1 mph - N/A   Overcast
12:55 AM 37.4 °F 28.2 °F 24.8 °F 60% 29.95 in 6.2 mi ENE 16.1 mph - N/A   Overcast
1:25 AM 35.6 °F 26.6 °F 26.6 °F 70% 29.95 in 6.2 mi East 13.8 mph - N/A   Overcast
1:55 AM 35.6 °F 26.2 °F 26.6 °F 70% 29.95 in 6.2 mi ENE 15.0 mph - N/A   Overcast
2:00 AM 35 °F - 26 °F 58% 29.96 in 25 mi ENE 13.4 mph - -   Partly Cloudy
2:25 AM 35.6 °F 27.1 °F 24.8 °F 65% 29.95 in 6.2 mi ENE 12.7 mph - N/A   Overcast
2:55 AM 33.8 °F 23.9 °F 24.8 °F 70% 29.95 in 6.2 mi ENE 15.0 mph - N/A   Mostly Cloudy
3:25 AM 33.8 °F 23.9 °F 24.8 °F 70% 29.95 in 6.2 mi ENE 15.0 mph - N/A   Unknown
3:55 AM 32.0 °F 21.6 °F 24.8 °F 75% 29.95 in 6.2 mi ENE 15.0 mph - N/A   Partly Cloudy
4:25 AM 32.0 °F 21.6 °F 26.6 °F 80% 29.95 in 6.2 mi ENE 15.0 mph - N/A   Unknown
4:55 AM 32.0 °F 22.1 °F 26.6 °F 80% 29.95 in 6.2 mi ENE 13.8 mph - N/A   Unknown
5:25 AM 32.0 °F 22.5 °F 24.8 °F 75% 29.92 in 6.2 mi ENE 12.7 mph - N/A   Unknown
5:55 AM 32.0 °F 23.0 °F 26.6 °F 80% 29.92 in 6.2 mi ENE 11.5 mph - N/A   Unknown
6:25 AM 32.0 °F 22.5 °F 26.6 °F 80% 29.92 in 6.2 mi NE 12.7 mph - N/A   Partly Cloudy
6:55 AM 32.0 °F 22.5 °F 26.6 °F 80% 29.92 in 6.2 mi NE 12.7 mph - N/A   Overcast
7:25 AM 32.0 °F 22.5 °F 26.6 °F 80% 29.95 in 6.2 mi NE 12.7 mph - N/A   Partly Cloudy
7:33 AM 32.0 °F 22.5 °F 26.6 °F 80% 29.95 in 6.2 mi NE 12.7 mph - N/A   Partly Cloudy
7:55 AM 33.8 °F 24.8 °F 28.4 °F 81% 29.95 in 6.2 mi NE 12.7 mph - N/A   Partly Cloudy
7:58 AM 33.8 °F 24.8 °F 28.4 °F 81% 29.95 in 6.2 mi NE 12.7 mph - N/A   Unknown
8:00 AM 34 °F - 28 °F 72% 29.96 in 14 mi NE 13.4 mph - -   Partly Cloudy
8:25 AM 35.6 °F 27.1 °F 28.4 °F 75% 29.95 in 6.2 mi NE 12.7 mph - N/A   Unknown
8:55 AM 37.4 °F 28.5 °F 28.4 °F 70% 29.95 in 6.2 mi NE 15.0 mph - N/A   Partly Cloudy
9:25 AM 37.4 °F 27.5 °F 28.4 °F 70% 29.95 in 6.2 mi NE 18.4 mph - N/A   Unknown
9:30 AM 39.2 °F 29.6 °F 28.4 °F 65% 29.95 in 6.2 mi NE 19.6 mph - N/A   Unknown
9:55 AM 39.2 °F 29.6 °F 28.4 °F 65% 29.95 in 6.2 mi NE 19.6 mph - N/A   Unknown
10:25 AM 39.2 °F 30.2 °F 24.8 °F 56% 29.95 in 6.2 mi ENE 17.3 mph - N/A   Mostly Cloudy
10:55 AM 41.0 °F 32.5 °F 24.8 °F 53% 29.95 in 6.2 mi ENE 17.3 mph - N/A   Partly Cloudy
11:25 AM 42.8 °F 35.4 °F 24.8 °F 49% 29.98 in 6.2 mi NNE 15.0 mph - N/A   Unknown
11:55 AM 42.8 °F 35.1 °F 24.8 °F 49% 29.95 in 6.2 mi NE 16.1 mph - N/A   Partly Cloudy
12:10 PM 42.8 °F 35.1 °F 24.8 °F 49% 29.95 in 6.2 mi NE 16.1 mph - N/A   Mostly Cloudy
12:25 PM 42.8 °F 34.8 °F 24.8 °F 49% 29.95 in 6.2 mi NE 17.3 mph - N/A   Scattered Clouds
12:55 PM 42.8 °F 35.1 °F 26.6 °F 53% 29.95 in 6.2 mi NNE 16.1 mph - N/A   Partly Cloudy
1:25 PM 42.8 °F 35.4 °F 28.4 °F 57% 29.95 in 6.2 mi NE 15.0 mph - N/A   Scattered Clouds
1:55 PM 42.8 °F 35.1 °F 28.4 °F 57% 29.95 in 6.2 mi NE 16.1 mph - N/A   Partly Cloudy
2:00 PM 44 °F - 27 °F 38% 29.96 in 22 mi NE 17.9 mph - -   Partly Cloudy
2:25 PM 44.6 °F 36.9 °F 24.8 °F 46% 29.95 in 6.2 mi ENE 18.4 mph - N/A   Partly Cloudy
2:55 PM 42.8 °F 34.8 °F 23.0 °F 46% 29.95 in 6.2 mi NE 17.3 mph - N/A   Unknown
3:25 PM 44.6 °F 36.9 °F 24.8 °F 46% 29.95 in 6.2 mi NE 18.4 mph - N/A   Unknown
3:55 PM 44.6 °F 36.6 °F 23.0 °F 43% 29.95 in 6.2 mi NNE 19.6 mph - N/A   Partly Cloudy
4:02 PM 42.8 °F 34.3 °F 23.0 °F 46% 29.95 in 6.2 mi NNE 19.6 mph - N/A   Partly Cloudy
4:25 PM 42.8 °F 34.0 °F 23.0 °F 46% 29.95 in 6.2 mi NE 20.7 mph - N/A   Unknown
4:55 PM 41.0 °F 31.9 °F 24.8 °F 53% 29.95 in 6.2 mi NE 19.6 mph - N/A   Unknown
5:25 PM 41.0 °F 31.6 °F 24.8 °F 53% 29.95 in 6.2 mi NE 20.7 mph - N/A   Partly Cloudy
5:55 PM 41.0 °F 32.5 °F 26.6 °F 57% 29.95 in 6.2 mi NE 17.3 mph - N/A   Partly Cloudy
6:25 PM 41.0 °F 32.2 °F 28.4 °F 61% 29.95 in 6.2 mi NE 18.4 mph - N/A   Mostly Cloudy
6:34 PM 39.2 °F 30.2 °F 28.4 °F 65% 29.98 in 6.2 mi NE 17.3 mph - N/A   Mostly Cloudy
6:44 PM 39.2 °F 29.8 °F 28.4 °F 65% 29.98 in 6.2 mi NNE 18.4 mph - N/A   Mostly Cloudy
6:49 PM 39.2 °F 29.8 °F 28.4 °F 65% 29.98 in 6.2 mi NNE 18.4 mph - N/A   Mostly Cloudy
6:55 PM 39.2 °F 30.2 °F 28.4 °F 65% 29.98 in 6.2 mi NE 17.3 mph - N/A   Mostly Cloudy
6:59 PM 39.2 °F 30.5 °F 28.4 °F 65% 29.98 in 6.2 mi NE 16.1 mph - N/A   Mostly Cloudy
7:25 PM 39.2 °F 30.5 °F 28.4 °F 65% 29.98 in 6.2 mi NE 16.1 mph - N/A   Scattered Clouds
7:55 PM 37.4 °F 27.8 °F 28.4 °F 70% 29.98 in 6.2 mi NE 17.3 mph - N/A   Overcast
8:00 PM 38 °F - 29 °F 60% 30.00 in 19 mi NE 15.7 mph - -   Partly Cloudy
8:25 PM 37.4 °F 29.3 °F 30.2 °F 75% 30.01 in 6.2 mi NE 12.7 mph - N/A   Overcast
8:55 PM 37.4 °F 28.5 °F 30.2 °F 75% 30.01 in 6.2 mi NE 15.0 mph - N/A   Overcast
9:25 PM 37.4 °F 28.9 °F 30.2 °F 75% 30.01 in 6.2 mi NE 13.8 mph - N/A   Overcast
9:38 PM 37.4 °F 28.9 °F 32.0 °F 81% 30.04 in 6.2 mi NE 13.8 mph - N/A   Overcast
9:55 PM 37.4 °F 29.3 °F 32.0 °F 81% 30.04 in 6.2 mi NE 12.7 mph - N/A   Overcast
10:25 PM 37.4 °F 29.3 °F 32.0 °F 81% 30.04 in 6.2 mi NE 12.7 mph - N/A   Overcast
10:55 PM 37.4 °F 29.3 °F 32.0 °F 81% 30.04 in 6.2 mi NE 12.7 mph - N/A   Overcast
10:59 PM 37.4 °F 29.3 °F 32.0 °F 81% 30.04 in 6.2 mi NE 12.7 mph - N/A   Mostly Cloudy
11:03 PM 37.4 °F 29.3 °F 32.0 °F 81% 30.04 in 6.2 mi NE 12.7 mph - N/A   Mostly Cloudy
11:17 PM 37.4 °F 29.3 °F 32.0 °F 81% 30.04 in 6.2 mi NE 12.7 mph - N/A   Overcast
11:25 PM 37.4 °F 29.3 °F 32.0 °F 81% 30.04 in 6.2 mi NE 12.7 mph - N/A   Mostly Cloudy
11:38 PM 37.4 °F 29.8 °F 32.0 °F 81% 30.04 in 6.2 mi NE 11.5 mph - N/A   Mostly Cloudy
11:42 PM 37.4 °F 29.8 °F 32.0 °F 81% 30.04 in 6.2 mi NE 11.5 mph - N/A   Mostly Cloudy
11:49 PM 37.4 °F 29.8 °F 32.0 °F 81% 30.04 in 6.2 mi NE 11.5 mph - N/A   Overcast
11:55 PM 37.4 °F 29.8 °F 32.0 °F 81% 30.04 in 6.2 mi NE 11.5 mph - N/A   Mostly Cloudy